CZ-6A DEB

Satellite information

Favourite Embed

Satellite Type and Status

DEBRISIN ORBIT

Key statistics

Satellite CZ-6A DEB at a glance.

Uptime

907

Days in orbit

Revolutions

≈ 14.1

Per day

Orbit

SSO

Sun Synchronous Orbit

Inclination

98.8

Latest

Satellite identification and parameters

Extended collection of information and parameters for CZ-6A DEB.

Object identification

Identified? True

Debris? True

Object name: CZ-6A DEB

International designator: 2022-151ZW

Object number (NORAD): 55874

Object ID (CCSDS): 55874

Country: PEOPLES REPUBLIC OF CHINA (PRC)

Current information (Y/N): Y

RCS size: SMALL

Orbital parameters

Period: 102.007 minutes

Inclination: 98.8148 deg

SMA: 7231.806 km

Apoapsis: 903.22 km

Periapsis: 804.122 km

RAAN: 121.1328 deg

Eccentricy: 0.0068515

Argument of periapsis: 60.9357 deg

Mean anomaly: 299.8655 deg

Mean motion: 14.11668127 rev/day

Mean motion (dot): 0.00004181 rev/day2

B* drag term: 0.0022705 1/REarth

Two-line elements (TLE)

Creation date: May 6, 2025, 3:54 a.m.

Reference frame: TEME

Reference center: EARTH

Epoch: May 5, 2025, 3:59 p.m. UTC

TLE line 0: 0 CZ-6A DEB

TLE line 1: 1 55874U 22151ZW 25125.66599033 .00004181 00000-0 22705-2 0 9998

TLE line 2: 2 55874 98.8148 121.1328 0068515 60.9357 299.8655 14.11668127115257

Live tracking on map

Real-time ground track for satellite CZ-6A DEB.

In-orbit conjunctions

A list of the most updated potential collisions computed for object CZ-6A DEB.

Target Orbit TCA Probability of collision Miss distance Type
EXPLORER 22 LEO 2025-03-25 19:42:00 0.0001857492 299.0 (m) PAYLOAD
METEOR 1-10 LEO 2024-08-28 16:34:10 0.0001099463 214.0 (m) PAYLOAD

Associated space launch

Chinese satellite reported for atmospheric/ocean/environmental/spatial parameter research purposes, details TBD.

CZ-6A DEB was lifted into orbit during the mission ‘Long March 6A | Yunhai 3’, on board a Long March 6A space rocket.

The launch took place on Nov. 11, 2022, 10:52 p.m. from Launch Complex 9A.

For more information about the launch, click the button.

Launch to space Long March 6A | Yunhai 3
Long March 6A | Yunhai 3

Agency: N/A

Status: Launch Successful

Launch date: Nov. 11, 2022, 10:52 p.m. UTC

Rocket: Long March 6A

Launch pad: Launch Complex 9A

Location: Taiyuan Satellite Launch Center, People's Republic of China

...

Latest news about this satellite

There are no fresh news available about this satellite. Check back as we update our databases every day.


Newsletter sign-up

Weekly statistics, charts and insights to help you stay on top of the space industry.